TimeCDT,TemperatureF,Dew PointF,Humidity,Sea Level PressureIn,VisibilityMPH,Wind Direction,Wind SpeedMPH,Gust SpeedMPH,PrecipitationIn,Events,Conditions,WindDirDegrees,DateUTC
12:13 AM,23.0,19.4,86,29.87,2.0,NNW,23.0,29.9,N/A,Snow,Light Snow,340,2013-03-11 05:13:00
12:53 AM,23.0,19.0,85,29.91,2.0,North,23.0,31.1,N/A,Snow,Light Snow,350,2013-03-11 05:53:00
1:27 AM,23.0,19.4,86,29.85,4.0,NNW,19.6,29.9,N/A,Snow,Light Snow,340,2013-03-11 06:27:00
1:43 AM,23.0,19.4,86,29.85,9.0,North,18.4,26.5,N/A,,Overcast,350,2013-03-11 06:43:00
1:53 AM,23.0,19.0,85,29.91,10.0,North,21.9,-,N/A,,Overcast,350,2013-03-11 06:53:00
2:53 AM,24.1,19.0,81,29.91,10.0,NNW,18.4,-,N/A,,Overcast,340,2013-03-11 07:53:00
3:53 AM,23.0,19.0,85,29.89,10.0,North,18.4,-,N/A,,Overcast,350,2013-03-11 08:53:00
5:53 AM,21.9,18.0,85,29.88,10.0,NNW,20.7,-,N/A,,Overcast,330,2013-03-11 10:53:00
6:53 AM,21.9,17.1,82,29.88,10.0,NNW,19.6,-,N/A,,Overcast,330,2013-03-11 11:53:00
7:53 AM,21.9,17.1,82,29.88,10.0,NNW,17.3,-,N/A,,Overcast,340,2013-03-11 12:53:00
8:16 AM,21.2,17.6,86,29.83,10.0,NNW,13.8,-,N/A,,Overcast,330,2013-03-11 13:16:00
8:53 AM,23.0,17.1,78,29.89,10.0,NNW,18.4,-,N/A,,Overcast,340,2013-03-11 13:53:00
9:53 AM,24.1,17.1,75,29.89,10.0,NNW,17.3,-,N/A,,Overcast,330,2013-03-11 14:53:00
10:53 AM,24.1,18.0,77,29.90,10.0,NNW,18.4,-,N/A,,Overcast,330,2013-03-11 15:53:00
11:53 AM,25.0,17.1,72,29.89,10.0,NNW,16.1,-,N/A,,Overcast,340,2013-03-11 16:53:00
12:53 PM,26.1,17.1,69,29.88,10.0,NNW,16.1,-,N/A,,Overcast,330,2013-03-11 17:53:00
1:53 PM,26.1,18.0,71,29.87,10.0,NNW,15.0,-,0.01,,Mostly Cloudy,330,2013-03-11 18:53:00
2:06 PM,26.6,17.6,69,29.81,10.0,NNW,13.8,-,0.00,,Scattered Clouds,330,2013-03-11 19:06:00
2:17 PM,26.6,17.6,69,29.81,10.0,NNW,15.0,-,0.00,,Mostly Cloudy,330,2013-03-11 19:17:00
2:27 PM,26.6,17.6,69,29.81,10.0,NNW,16.1,-,0.00,,Mostly Cloudy,330,2013-03-11 19:27:00
2:53 PM,27.0,18.0,69,29.86,10.0,NNW,15.0,-,0.00,,Mostly Cloudy,330,2013-03-11 19:53:00
3:53 PM,28.0,18.0,66,29.87,10.0,NNW,15.0,-,0.01,,Overcast,330,2013-03-11 20:53:00
4:53 PM,30.0,19.9,66,29.87,10.0,NW,8.1,-,0.01,,Overcast,320,2013-03-11 21:53:00
6:53 PM,28.9,19.9,69,29.89,10.0,West,9.2,-,N/A,,Overcast,280,2013-03-11 23:53:00
7:53 PM,28.0,21.0,75,29.92,10.0,West,11.5,-,N/A,,Overcast,280,2013-03-12 00:53:00
8:53 PM,28.0,21.0,75,29.94,10.0,West,9.2,-,N/A,,Overcast,280,2013-03-12 01:53:00
9:53 PM,24.1,17.1,75,29.95,10.0,West,10.4,-,N/A,,Partly Cloudy,280,2013-03-12 02:53:00
10:53 PM,19.9,14.0,78,29.97,10.0,WNW,12.7,-,N/A,,Clear,290,2013-03-12 03:53:00
11:51 PM,24.8,17.6,74,29.91,10.0,WNW,11.5,-,N/A,,Mostly Cloudy,290,2013-03-12 04:51:00
11:53 PM,25.0,18.0,75,29.97,10.0,WNW,12.7,-,N/A,,Mostly Cloudy,290,2013-03-12 04:53:00